ONEWEB-0623 (55164 NORAD) Tracking and Keplerian Element Data

This shows tracking and keplerian element data for the satellite.

Feedback or suggestion? Click here.




ElementValue
Catalog55164
NameONEWEB-0623
Epoch Orbit1120
Epoch Day84.89421003
Epoch Year2023
RAAN253.6045
Inclination86.6233
Eccentricity0.0013888
Argument of Perigee335.0137
Mean Anonmoly25.0402
Mean Motion14.65717231
Decay Rate1.771E-05
L11 55164U 23004AA 23084.89421003 .00001771 00000+0 32094-3 0 9990
L22 55164 86.6233 253.6045 0013888 335.0137 25.0402 14.65717231 11200



Live tracking and technical data element details for ONEWEB-0623 (NORAD 55164). ONEWEB-0623 can be tracked NOW for your location showing map with azimuth and elevation plus other details from your city location.







IsCatalogInMostPopularTable: catalog: 55164, numindb: 15
Update: records affected: 1



GetName: 55164 ONEWEB-0623

Hit Count: updated at: Mon, 27 Mar 2023 08:02:20 GMT